#timestamp,LO_Frequency,Hit,StdDev 
1596218415.4,286047000.4,P
1596218435.2,286046999.9,N
1596218455.1,286047000.0,N
1596218456.0,286047000.0,N
1596218475.8,286047002.5,Y
1596218495.6,286047000.6,P
1596218515.5,286047000.9,P
1596218535.3,286047001.0,P
1596218555.2,286046999.8,N
1596218575.9,286046999.9,N
1596218595.7,286046998.1,Y
1596218615.6,286046998.6,P
1596218635.4,286046998.1,N
1596218655.3,286046999.8,N
1596218675.1,286046999.8,N
1596218676.0,286046999.8,N
1596218695.8,286047000.2,N
1596218715.7,286047000.5,N
1596218735.5,286047000.0,N
1596218755.4,286047000.5,N
1596218775.2,286046998.1,N
1596218795.0,286047000.2,N
1596218795.9,286047000.2,N
1596218815.8,286047000.3,N
1596218835.6,286046999.8,N
1596218855.5,286047002.5,Y
1596218875.3,286047002.5,P
1596218895.1,286047001.5,N
1596218915.9,286047002.0,N
1596218935.7,286047002.7,N
1596218955.6,286047001.6,N
1596218975.4,286047002.5,N
1596218995.2,286046999.8,N
1596219015.1,286046999.7,N
1596219016.0,286046999.7,N
1596219035.8,286047000.4,N
1596219055.7,286046999.7,N
1596219075.5,286046999.8,N
1596219095.3,286047002.3,N
1596219115.2,286047002.7,N
1596219135.0,286047000.4,N
1596219135.9,286047000.4,N
1596219155.8,286046999.7,N
1596219175.6,286047002.5,N
1596219195.4,286047002.7,N
1596219215.3,286047002.2,N
1596219235.1,286047002.2,N
1596219255.9,286047002.5,N
1596219275.7,286047002.5,N
1596219295.6,286047002.2,N
1596219315.4,286047002.3,N
1596219335.2,286047002.0,N
1596219355.1,286047002.6,N
1596219356.0,286047002.6,N
1596219375.8,286047002.1,N
1596219395.7,286047001.9,N
1596219415.5,286047002.7,N
1596219435.3,286047000.9,N
1596219455.2,286046999.4,N
1596219475.0,286046999.3,N
1596219475.9,286046999.3,N
1596219495.7,286046999.6,N
1596219515.6,286046999.4,N
1596219535.4,286046999.3,N
1596219555.3,286046998.7,N
1596219575.1,286046998.7,N
1596219595.8,286047000.9,N
1596219615.7,286047000.9,N
1596219635.5,286046998.7,N
1596219655.4,286046999.1,N
1596219675.2,286046999.5,N
1596219695.0,286046998.3,N
1596219695.9,286046998.3,N
1596219715.8,286046998.6,N
1596219735.6,286047000.9,N
1596219755.5,286047000.9,N
1596219775.3,286046999.0,N
1596219795.1,286046997.1,N
1596219815.9,286046997.9,N
1596219835.7,286046997.0,N
1596219855.6,286046996.8,N
1596219875.4,286046997.0,N
1596219895.2,286046996.7,N
1596219915.1,286046997.1,N
1596219916.0,286046997.1,N
1596219935.8,286046996.5,N
1596219955.6,286046999.4,N
1596219975.5,286046999.5,N
1596219995.3,286046999.5,N
1596220015.2,286046999.0,N
1596220035.9,286046998.7,N
1596220055.7,286046999.2,N
1596220075.6,286046999.3,N
1596220095.4,286046996.7,N
1596220115.2,286046996.7,N
1596220135.1,286046995.3,Y
1596220136.0,286046995.3,P
1596220155.8,286046996.5,N
1596220175.7,286046997.2,N
1596220195.5,286046999.6,N
1596220215.3,286046997.3,N
1596220235.2,286046995.0,Y
1596220255.0,286046998.5,P
1596220255.9,286046998.5,N
1596220275.8,286046996.6,P
1596220295.6,286046998.9,N
1596220315.4,286046999.2,N
1596220335.3,286046996.5,Y
1596220355.1,286046999.9,P
1596220375.9,286047002.4,N
1596220395.7,286047000.0,N
1596220415.5,286047000.0,N
1596220435.4,286047002.0,N
1596220455.2,286047002.0,N
1596220475.1,286047004.1,N
1596220476.0,286047004.1,N
1596220495.8,286047003.7,N
1596220515.7,286047004.1,N
1596220535.5,286047003.1,N
1596220555.4,286047005.9,Y
1596220575.2,286047001.4,P
1596220595.1,286047003.9,P
1596220596.0,286047003.9,P
1596220615.8,286047003.9,Y
1596220635.6,286046998.2,P
1596220655.5,286047001.0,N
1596220675.3,286047001.2,N
1596220695.2,286047001.0,N
1596220715.9,286047001.0,N
1596220735.7,286047001.2,N
1596220755.6,286046998.1,N
1596220775.4,286047001.2,N
1596220795.2,286047000.8,N
1596220815.1,286047000.5,N
1596220816.0,286047000.5,N
1596220835.8,286046999.8,N
1596220855.7,286047002.3,N
1596220875.5,286047002.8,N
1596220895.3,286047000.1,N
1596220915.2,286047000.2,N
1596220935.0,286047002.8,N
1596220935.9,286047002.8,N
1596220955.8,286047002.2,N
1596220975.6,286047002.3,N
1596220995.4,286046999.7,N
1596221015.3,286046999.8,N
1596221035.1,286047002.4,N
1596221055.8,286047002.5,N
1596221075.7,286047001.7,N
1596221095.5,286047002.2,N
1596221115.4,286047002.1,N
1596221135.2,286047002.1,N
1596221155.0,286047001.5,N
1596221155.9,286047001.5,N
1596221175.8,286047001.9,N
1596221195.6,286047002.5,N
1596221215.4,286047002.3,N
1596221235.3,286047002.2,N
1596221255.1,286047004.0,Y
1596221275.9,286047002.7,P
1596221295.7,286047000.3,N
1596221315.5,286047002.6,N
1596221335.4,286047002.7,N
1596221355.2,286047000.5,N
1596221375.1,286047000.0,N
1596221376.0,286047000.0,N
1596221395.8,286047002.4,N
1596221415.6,286046999.7,N
1596221435.5,286047000.1,N
1596221455.3,286047000.9,N
1596221475.1,286047000.2,N
1596221495.9,286046999.8,N
1596221515.7,286047002.7,N
1596221535.6,286047002.7,N
1596221555.4,286047002.3,N
1596221575.2,286047002.5,N
1596221595.1,286047001.7,N
1596221596.0,286047001.7,N
1596221615.8,286047004.4,Y
1596221635.7,286047000.0,P
1596221655.5,286046999.8,N
1596221675.3,286047000.2,N
1596221695.2,286047000.7,N
1596221715.0,286047000.8,N
1596221715.9,286047000.8,N
1596221735.8,286047002.1,Y
1596221755.6,286046999.9,P
1596221775.4,286047000.1,N
1596221795.3,286047002.6,P
1596221815.1,286047002.4,N
1596221835.8,286047000.3,N
1596221855.7,286047000.2,N
1596221875.5,286047000.6,N
1596221895.4,286046999.8,N
1596221915.2,286047002.3,N
1596221935.0,286047002.4,N
1596221935.9,286047002.4,N
1596221955.8,286047002.4,N
1596221975.6,286047001.9,N
1596221995.5,286047002.2,N
